Voltar ao catálogo

STARLINK-5324

AtivoComunicaçõesVLEO
NORAD 55677·PAYLOAD·🇺🇸 United States

Lançado Feb 17, 2023 de Vandenberg Space Force Base

Loading…

Próximas Passagens (próximas 24 horas)

TLE

AtualizadoSource: CelesTrak SupGP

Época: Sep 15, 2026, 02:20 UTC

1 55677C 23021BB  26258.09770833 -.00004510  00000+0 -37802-3 0  2580
2 55677  70.0032  26.8469 0003085 269.8948 326.2988 14.98326980    10

Acompanhe STARLINK-5324 em tempo real com AllMySat

Download on the App Store